RCAMPBELL Weather Reports


time (UTC)temp
F
wind
direction
speed
knots
gust
knots
rain 1hr
in
rain 24hr
in
rain mn
in
humidity
%
barometer
mb
20260503211548 71 306 7.0 11.3 0.00 0.00 0.00 47 1011.3
20260503210040 72 319 3.5 9.6 0.00 0.00 0.00 44 1011.4
20260503204539 72 317 6.1 10.4 0.00 0.00 0.00 46 1011.7
20260503203046 72 271 2.6 7.0 0.00 0.00 0.00 50 1011.9
20260503201538 70 345 5.2 11.3 0.00 0.00 0.00 50 1012.2
20260503200052 70 304 4.3 11.3 0.00 0.00 0.00 56 1012.3
20260503194537 68 327 6.1 11.3 0.00 0.00 0.00 57 1012.4
20260503193040 67 286 6.1 11.3 0.00 0.00 0.00 62 1012.5
20260503191543 67 321 5.2 10.4 0.00 0.00 0.00 60 1012.6
20260503190039 66 290 8.7 13.0 0.00 0.00 0.00 59 1012.6
20260503184546 67 300 5.2 11.3 0.00 0.00 0.00 62 1012.6
20260503183042 67 277 5.2 10.4 0.00 0.00 0.00 61 1012.7
20260503181550 68 279 7.0 9.6 0.00 0.00 0.00 59 1012.9
20260503180048 68 282 5.2 8.7 0.00 0.00 0.00 62 1013.1
20260503174545 68 153 1.7 3.5 0.00 0.00 0.00 64 1013.3
20260503173052 68 90 1.7 6.1 0.00 0.00 0.00 72 1013.4
20260503171537 68 198 0.0 6.1 0.00 0.00 0.00 68 1013.6
20260503081542 55 344 0.9 0.9 0.00 0.01 0.00 80 1013.7
20260503071542 59 0 0.0 1.7 0.00 0.01 0.00 72 1013.6
20260503054537 58 118 0.9 2.6 0.00 0.01 0.01 81 1013.4
20260503053039 59 104 1.7 2.6 0.00 0.01 0.01 80 1013.4
20260503051539 59 82 0.9 1.7 0.00 0.01 0.01 79 1013.6
20260503050037 59 84 0.0 0.9 0.00 0.01 0.01 78 1013.6
20260503044539 60 92 0.0 1.7 0.00 0.01 0.01 79 1013.5
20260503043037 60 126 0.0 0.9 0.00 0.01 0.01 78 1013.4
20260503041537 60 130 0.0 0.9 0.00 0.01 0.01 78 1013.2
20260503040035 60 130 0.0 0.9 0.00 0.01 0.01 78 1013.2
20260503034538 60 0 0.0 0.9 0.00 0.01 0.01 76 1013.0
20260503033040 61 0 0.0 0.9 0.00 0.01 0.01 75 1012.8
20260503031538 63 231 0.9 0.9 0.00 0.01 0.01 73 1012.8
20260503030052 64 94 0.0 0.9 0.00 0.01 0.01 72 1012.8
20260503024542 64 0 0.0 2.6 0.00 0.01 0.01 74 1012.7
20260503023037 66 114 0.0 0.9 0.00 0.01 0.01 68 1012.5
20260503021540 64 103 0.0 1.7 0.00 0.01 0.01 71 1012.6
20260503020037 66 126 1.7 2.6 0.00 0.01 0.01 67 1012.8
20260503014547 67 87 0.9 3.5 0.00 0.01 0.01 68 1013.0
20260503013034 69 234 1.7 3.5 0.00 0.01 0.01 61 1013.0
20260503011548 70 202 0.9 3.5 0.00 0.01 0.01 61 1013.2
20260503010038 71 290 2.6 6.1 0.00 0.01 0.01 53 1013.2
20260503004539 72 327 0.9 3.5 0.00 0.01 0.01 53 1013.3
20260503003046 72 239 0.9 5.2 0.00 0.01 0.01 53 1013.3
20260503001537 71 267 2.6 7.0 0.00 0.01 0.01 55 1013.5
20260503000037 71 259 2.6 7.8 0.00 0.01 0.01 57 1013.5
20260502234541 72 211 2.6 7.8 0.00 0.01 0.01 52 1013.7
20260502233039 73 311 1.7 5.2 0.00 0.01 0.01 52 1013.7
20260502231538 72 311 2.6 8.7 0.00 0.01 0.01 53 1013.7
20260502230038 70 334 4.3 10.4 0.00 0.01 0.01 56 1013.8
20260502224537 70 309 3.5 9.6 0.00 0.01 0.01 57 1014.1
20260502223037 70 290 6.1 11.3 0.00 0.01 0.01 55 1014.2
20260502221533 69 298 1.7 10.4 0.00 0.01 0.01 56 1014.4
20260502220041 68 17 5.2 11.3 0.00 0.01 0.01 61 1014.6
20260502214537 68 285 5.2 9.6 0.00 0.01 0.01 61 1014.9
20260502213042 67 292 4.3 9.6 0.00 0.01 0.01 61 1015.0